This is the latest recevied weather packets stored in our database for station/object N5SRF. If no packets are shown the sender has not sent any weather packets the latest 10 day(s).
| Time | Temp. | Humidity | Pressure | Rain* | Wind** | Luminosity | Snow |
|---|---|---|---|---|---|---|---|
| 1777597247 | 18.89° C | 99% | 1015.1 hPa | 0 mm | - | 0 W/m² | - |
| 1777596942 | 18.89° C | 99% | 1015.2 hPa | 0 mm | - | 1 W/m² | - |
| 1777596639 | 18.89° C | 99% | 1015.2 hPa | 3.05 mm | - | 1 W/m² | - |
| 1777596336 | 18.89° C | 99% | 1015.2 hPa | 3.05 mm | - | 2 W/m² | - |
| 1777596034 | 18.89° C | 99% | 1014.9 hPa | 0 mm | - | 3 W/m² | - |
| 1777595733 | 18.89° C | 99% | 1014.7 hPa | 0 mm | - | 5 W/m² | - |
| 1777595429 | 18.89° C | 99% | 1014.9 hPa | 0 mm | - | 6 W/m² | - |
| 1777595126 | 18.89° C | 99% | 1014.7 hPa | 0 mm | - | 7 W/m² | - |
| 1777594822 | 18.89° C | 99% | 1014.7 hPa | 0 mm | - | 6 W/m² | - |
| 1777594518 | 18.89° C | 99% | 1015.2 hPa | 0 mm | - | 8 W/m² | - |
| 1777594215 | 18.89° C | 99% | 1014.8 hPa | 0 mm | - | 12 W/m² | - |
| 1777593910 | 18.89° C | 99% | 1014.9 hPa | 0 mm | - | 11 W/m² | - |
| 1777593607 | 18.89° C | 99% | 1014.4 hPa | 0 mm | - | 11 W/m² | - |
| 1777593303 | 18.89° C | 99% | 1014.3 hPa | 0 mm | - | 18 W/m² | - |
| 1777592997 | 18.89° C | 99% | 1014.5 hPa | 0 mm | - | 18 W/m² | - |
| 1777592692 | 18.89° C | 99% | 1014.1 hPa | 0 mm | - | 18 W/m² | - |
| 1777592388 | 18.89° C | 99% | 1014 hPa | 0 mm | - | 29 W/m² | - |
| 1777592083 | 18.89° C | 99% | 1014.1 hPa | 0 mm | - | 40 W/m² | - |
| 1777591781 | 18.89° C | 99% | 1014.2 hPa | 0 mm | - | 36 W/m² | - |
| 1777591476 | 18.89° C | 99% | 1014 hPa | 0 mm | - | 51 W/m² | - |
| 1777591173 | 18.89° C | 99% | 1014 hPa | 0 mm | - | 48 W/m² | - |
| 1777590867 | 18.89° C | 99% | 1014 hPa | 0 mm | - | 73 W/m² | - |
| 1777590564 | 18.89° C | 99% | 1014.2 hPa | 0 mm | - | 81 W/m² | - |
| 1777590260 | 18.89° C | 99% | 1013.9 hPa | 0 mm | - | 75 W/m² | - |
| 1777589958 | 18.89° C | 99% | 1013.9 hPa | 0 mm | - | 78 W/m² | - |
* Rain latest hour (hover to see other rain measurements)
** Current wind speed in m/s (hover to see current wind gust speed)